www.pogodaiklimat.ru

Погода и климат >> Архив погоды >> Россия >> Хабаровский край >> Гвасюги


ПОГОДА в Гвасюгах

  • Прогноз погоды в Гвасюгах
  • Монитор погоды в Гвасюгах

АРХИВ ПОГОДЫ в Гвасюгах

Время (UTC), дата Ветер
(напр.,м/с)
 
Видим.   Явления Облачность Т
(С)
Тd
(С)
f
(%)
Тe
(С)
Тes
(С)
Комфортность P
(гПа)
Po
(гПа)
Тmin
(С)
Tmax
(С)
R
(мм)
R24
(мм)
S
(см)
09 10.07 ЮЗ 2 20 км 4/3 600 м
[Cu med, cong Ci fib]
+26.6 +19.9 67 +33 +34 очень
душно
1010.3 990.0 +27.6
12 10.07 штиль 0 20 км 3/1 600 м
[Sc Ci fib]
+20.0 +18.9 93 +23 +23 комфорт 1011.9 991.1
15 10.07 С 1 20 км 6/0
[Ci sp]
+17.3 +16.4 94 +18 +18 1012.3 991.3
18 10.07 штиль 0 200 м туман ясно +18.7 +17.8 95 +20 +20 1011.8 990.9
21 10.07 штиль 0 200 м туман ясно +18.9 +18.0 95 +20 +23 1012.2 991.3 +17.3
00 11.07 З 1 20 км туман на расстоянии 6/3 600 м
[St Ac trans]
+23.0 +19.4 80 +29 +36 очень
душно
1011.2 990.7
03 11.07 Ю 2 20 км 9/3 600 м
[Cb calv Cc]
+28.7 +15.6 45 +32 +42 душно 1008.7 988.5
06 11.07 Ю 2 20 км 9/3 600 м
[Cu med, cong Ci]
+29.9 +14.8 40 +32 +39 жарко 1006.4 986.4
09 11.07 С 1 20 км 8/3 600 м
[Cu med, cong Ci sp]
+28.3 +17.3 51 +32 +33 душно 1005.5 985.4 +30.4
12 11.07 СВ 1 20 км 4/3 600 м
[Sc Ci fib]
+21.2 +18.6 85 +26 +26 душно 1006.4 985.8
15 11.07 СВ 1 20 км 10/0
[Cs]
+17.5 +16.5 94 +19 +19 1006.1 985.2
18 11.07 штиль 0 1000 м туман на расстоянии 3/0
[Ci sp]
+16.0 +15.1 94 +16 +16 1005.8 984.8
21 11.07 штиль 0 1000 м туман на расстоянии 10/10 600 м
[St]
+16.7 +15.7 94 +17 +17 1005.4 984.5 +15.5
00 12.07 СВ 1 20 км 4/3 600 м
[St Ci fib]
+22.7 +18.3 76 +28 +37 душно 1004.0 983.6
03 12.07 ЮВ 1 20 км 6/3 600 м
[Cu med, cong Ci fib]
+29.7 +16.3 44 +33 +46 душно 1001.2 981.2
06 12.07 СВ 2
{10}
10 км гроза, ливневой дождь 10/8 600 м
[Cb cap Ac lent Ci fib]
+18.8 +17.2 90 +21 +22 комфорт 1002.5 981.8
09 12.07 С 2 20 км в посл. час гроза {ливн. осадки} 10/3 600 м
[Cb cap Ac lent Ci fib]
+20.0 +18.1 89 +24 +24 комфорт 1001.8 981.2 +30.6 7
12 12.07 СВ 1 20 км {гроза, ливн. осадки} 8/3 600 м
[Sc diur, vesp Ac trans Ci fib]
+18.6 +17.5 93 +21 +21 комфорт 1003.3 982.5
15 12.07 С 1 20 км 10/10 600 м
[St]
+17.4 +16.5 94 +18 +18 1003.3 982.4
18 12.07 штиль 0 2000 м туман на расстоянии 10/10 600 м
[St]
+16.5 +15.6 94 +16 +16 1003.6 982.7
21 12.07 С 1 4000 м туман на расстоянии 10/10 600 м
[St]
+16.7 +15.5 93 +18 +18 1004.5 983.6 +16.0
00 13.07 С 1 20 км 8/0
[Ci fib]
+22.3 +16.7 71 +27 +38 душно 1004.0 983.5
03 13.07 С 1 20 км 6/1 600 м
[Cu med, cong Ci fib]
+27.8 +15.7 48 +31 +48 душно 1002.4 982.3
06 13.07 С 2 20 км 5/3 600 м
[Cu med, cong Ci fib]
+28.0 +17.7 54 +32 +40 душно 1001.2 981.1
09 13.07 ЮЗ 3
{10}
4000 м гроза, ливневой дождь 10/10 600 м
[Cb cap]
+18.3 +17.3 94 +19 +19 1003.5 982.8 +29.1
12 13.07 штиль 0 500 м туман {гроза, ливн. осадки} ?/? +17.0 +16.2 95 +17 +17 1004.5 983.6
15 13.07 С 1 500 м туман ?/? +16.8 +16.0 95 +18 +18 1005.3 984.4
18 13.07 С 1 500 м туман ?/? +16.2 +15.5 96 +17 +17 1005.6 984.7
21 13.07 СВ 2 20 км в посл. час туман 5/0
[Cs]
+16.0 +15.3 96 +16 +18 1006.6 985.6 +15.5 0.0
00 14.07 СВ 2 50 км {туман} 10/0
[Cs]
+21.8 +14.8 64 +25 +34 комфорт 1006.0 985.4
03 14.07 В 1 50 км 10/3 600 м
[Cu hum Cs]
+26.1 +14.5 49 +29 +40 жарко 1005.0 984.7
06 14.07 ЮВ 1 50 км 8/5 600 м
[Cu med, cong Ac lent Cc]
+26.9 +14.6 47 +29 +34 жарко 1004.3 984.1
09 14.07 В 2 50 км 8/1 600 м
[Sc Ac trans Ci]
+25.5 +14.4 50 +28 +29 жарко 1004.9 984.6 +28.8
12 14.07 С 1 50 км 10/3 600 м
[Sc Ci fib]
+18.9 +14.8 77 +21 +21 комфорт 1007.8 987.0
15 14.07 СВ 1 50 км 9/9 600 м
[Sc]
+16.6 +15.3 92 +17 +17 1009.2 988.2
18 14.07 С 1 50 км 8/3 600 м
[Sc Ac trans]
+16.5 +13.4 82 +17 +17 1009.8 988.8
21 14.07 С 1 50 км 10/10 600 м
[Sc]
+16.5 +13.2 81 +17 +17 1011.2 990.1 +15.9
00 15.07 В 1 50 км 9/3 600 м
[Sc Ac trans Ci fib]
+23.0 +13.9 57 +26 +32 жарко 1010.9 990.2
03 15.07 ЮВ 1 50 км 6/3 600 м
[Cu med, cong Cc]
+25.5 +14.1 49 +28 +41 жарко 1010.1 989.6
06 15.07 З 1 50 км 9/5 600 м
[Cb calv Ac trans Ci sp]
+25.0 +16.4 59 +28 +32 жарко 1009.7 989.3
09 15.07 В 1 50 км 8/0
[Ac trans Ci fib]
+25.4 +16.9 59 +29 +30 душно 1009.3 988.9 +27.3
12 15.07 С 1 50 км 3/1 600 м
[Sc diur, vesp Ac trans Ci fib]
+17.3 +15.9 91 +18 +18 1011.4 990.4
15 15.07 штиль 0 50 км 9/9 600 м
[Sc]
+16.6 +15.7 94 +16 +16 1012.8 991.7
18 15.07 штиль 0 10 км 10/10 600 м
[Sc]
+16.7 +15.7 94 +17 +17 1012.9 991.8
21 15.07 штиль 0 4000 м слаб. дождь 10/8 600 м
[Sc As op]
+17.1 +16.2 94 +17 +17 1013.6 992.5 +16.3 2
00 16.07 штиль 0 20 км {дождь} 9/5 600 м
[Sc Ac trans]
+20.1 +16.9 82 +23 +27 комфорт 1013.5 992.6
03 16.07 Ю 1 50 км 9/4 600 м
[Cu med, cong Ac trans Ci fib]
+25.2 +16.2 57 +29 +36 душно 1011.8 991.4
06 16.07 ЮВ 2 50 км 9/3 600 м
[Cu med, cong Ac trans]
+27.1 +15.8 50 +30 +34 душно 1009.8 989.5
09 16.07 З 1 50 км 5/1 600 м
[Cu med, cong Ac cast]
+26.9 +16.8 54 +31 +32 душно 1008.9 988.6 +27.6
12 16.07 СВ 1 50 км 8/8 600 м
[Sc Ci fib]
+20.0 +18.1 89 +24 +24 комфорт 1010.7 989.9
15 16.07 штиль 0 50 км 3/0
[Ac trans Ci fib]
+16.9 +15.9 94 +17 +17 1011.1 990.1
18 16.07 штиль 0 1000 м туман на расстоянии 10/10 600 м
[St]
+16.0 +15.1 94 +16 +16 1011.1 990.0
21 16.07 штиль 0 500 м туман ясно +16.2 +15.4 95 +16 +18 1010.8 989.7 +15.0
00 17.07 штиль 0 20 км {ливн. осадки, туман} 10/10 600 м
[Sc]
+22.6 +18.3 77 +28 +28 душно 1009.4 988.8
03 17.07 З 1 50 км 8/5 600 м
[Sc Ci sp]
+25.9 +18.2 63 +31 +40 очень
душно
1007.1 986.8
06 17.07 ЮЗ 2 50 км 10/8 600 м
[Sc Cs]
+26.9 +17.3 56 +31 +33 душно 1005.5 985.3

 

Местоположение метеостанции Гвасюги (Хабаровский край, Россия): широта 47.67 долгота 136.10 высота над уровнем моря 180 м.

В архиве по умолчанию представлена погода в Гвасюгах за последнюю неделю. Архивные данные за месяц целиком и за предыдущие месяцы, начиная с января 2011 года, Вы можете получить, выбрав интересующий диапазон дат из раскрывающегося списка и нажав кнопку "Ввод!".


*Определитесь, кто Вы:
робот инопланетянин человек

Внимание! Время в таблицах - всемирное. Для получения местного времени необходимо прибавить поправку, которая равна 10 ч.

Смотрите также архив погоды в соседних городах и на ближайших метеорологических станциях:

Погода в Бичевой (Хабаровский край, Россия) (39 км)
Погода в Оборе (Хабаровский край, Россия) (58 км)
Погода в Георгиевке (Хабаровский край, Россия) (74 км)
Погода в Хоре (Хабаровский край, Россия) (89 км)
Погода в Князе-Волконском (Хабаровский край, Россия) (102 км)
Погода в Сукпае (Хабаровский край, Россия) (105 км)
Погода в Хабаровске 21 км (Хабаровский край, Россия) (105 км)
Погода в Вяземском (Хабаровский край, Россия) (106 км)
Погода в Хабаровске Аэр. Большой (Хабаровский край, Россия) (113 км)
Погода в Бычихе (Хабаровский край, Россия) (118 км)

Пояснения к столбцам:

Ветер - указаны скорость ветра в м/с - средняя за 10 мин, порывы в срок и между сроками (в фигурных скобках) и направление, откуда дует ветер: С - северный, СВ - северо-восточный, В - восточный, ЮВ - юго-восточный, Ю - южный, ЮЗ - юго-западный, З - западный, СЗ - северо-западный.
Видимость - горизонтальная дальность видимости в метрах или километрах. При видимости от 1 до 10 км при отсутствии осадков обычно наблюдается дымка, при ухудшении видимости до 1 км и менее - туман. В сухую погоду видимость может ухудшаться дымом, пылью или мглою.
Явления - указаны атмосферные явления, наблюдавшиеся в срок или в последний час перед сроком; фигурными скобками обозначены явления, наблюдавшиеся между сроками (за 1-3 часа до срока); квадратными скобками обозначены град или гололедные отложения с указанием их диаметра в мм.
Облачность - указаны через наклонную черту общая и нижняя облачность в баллах и высота нижней границы облаков в метрах; квадратными скобками обозначены формы облаков: Ci - перистые, Cs - перисто-слоистые, Cc - перисто-кучевые, Ac - высококучевые, As - высокослоистые, Sc - слоисто-кучевые, Ns - слоисто-дождевые, Cu - кучевые, Cb - кучево-дождевые. Подробнее классификацию облаков см. в Атласе облаков (PDF).
T - Температура воздуха - температура, измеренная на высоте 2 м над землей.
Td - Температура точки росы - температура, при понижении до которой содержащийся в воздухе водяной пар достигнет насыщения.
f - Относительная влажность воздуха - влажноcть воздуха, измеренная на высоте 2 м над землей.
Te - Эффективная температура - температура, которую ощущает одетый по сезону человек в тени. Характеристика душности погоды. При расчете учитывается влияние влажности воздуха и скорости ветра на теплоощущения человека.
Tes - Эффективная температура на солнце - температура, которую ощущает человек, с поправкой на солнечный нагрев. Характеристика знойности погоды. Зависит от высоты солнца над горизонтом, облачности и скорости ветра. Ночью, в пасмурную погоду, а также при ветре 12 м/с и более поправка равна нулю.
P - Атмосферное давление - приведенное к уровню моря атмосферное давление.
Po - Атмосферное давление - измеренное на уровне метеостанции атмосферное давление.
Tmin - Минимальная температура - минимум температуры воздуха на высоте 2 м над землей.
Tmax - Максимальная температура - максимум температуры воздуха на высоте 2 м над землей.
R - Количество осадков - Количество выпавших осадков за период времени, мм. При наведении курсора мыши на число - период времени, за который выпало указанное количество осадков.
R24 - Количество осадков - Количество выпавших осадков за 24 часа, мм.
S - Снежный покров - Высота снежного покрова, см. При наведении курсора мыши на число - состояние снежного покрова и степень покрытия местности в баллах.